Time,TemperatureF,DewpointF,PressureIn,WindDirection,WindDirectionDegrees,WindSpeedMPH,WindSpeedGustMPH,Humidity,HourlyPrecipIn,Conditions,Clouds,dailyrainin,SoftwareType,DateUTC
2013-06-24 00:00:00,70.2,61.1,30.04,NNE,15,0.0,0.0,73,0.00,,,-99.99,Wlink +4.0,2013-06-24 05:00:00,
2013-06-24 00:10:00,69.9,61.2,30.04,NNE,17,0.0,0.0,74,0.00,,,-99.99,Wlink +4.0,2013-06-24 05:10:00,
2013-06-24 00:20:00,69.5,61.2,30.04,NNE,15,0.0,0.0,75,0.00,,,-99.99,Wlink +4.0,2013-06-24 05:20:00,
2013-06-24 00:30:00,69.5,61.2,30.04,NNE,16,0.0,1.0,75,0.00,,,-99.99,Wlink +4.0,2013-06-24 05:30:00,
2013-06-24 00:50:00,69.2,61.7,30.04,NNE,15,0.0,1.0,77,0.00,,,-99.99,Wlink +4.0,2013-06-24 05:50:00,
2013-06-24 01:00:00,69.1,61.6,30.04,NNE,15,0.0,1.0,77,0.00,,,-99.99,Wlink +4.0,2013-06-24 06:00:00,
2013-06-24 01:10:00,68.7,61.6,30.03,NNE,16,0.0,1.0,78,0.00,,,-99.99,Wlink +4.0,2013-06-24 06:10:00,
2013-06-24 01:20:00,68.5,61.4,30.04,NNE,15,0.0,1.0,78,0.00,,,-99.99,Wlink +4.0,2013-06-24 06:20:00,
2013-06-24 01:30:00,68.1,61.0,30.04,NNE,15,0.0,1.0,78,0.00,,,-99.99,Wlink +4.0,2013-06-24 06:30:00,
2013-06-24 01:40:00,67.8,61.1,30.04,NNE,17,0.0,0.0,79,0.00,,,-99.99,Wlink +4.0,2013-06-24 06:40:00,
2013-06-24 01:50:00,67.7,61.3,30.04,NNE,16,0.0,0.0,80,0.00,,,-99.99,Wlink +4.0,2013-06-24 06:50:00,
2013-06-24 02:00:00,67.6,61.2,30.04,NNE,16,0.0,0.0,80,0.00,,,-99.99,Wlink +4.0,2013-06-24 07:00:00,
2013-06-24 02:10:00,67.4,61.4,30.05,NNE,16,0.0,1.0,81,0.00,,,-99.99,Wlink +4.0,2013-06-24 07:10:00,
2013-06-24 02:20:00,67.3,61.3,30.04,NNE,16,0.0,1.0,81,0.00,,,-99.99,Wlink +4.0,2013-06-24 07:20:00,
2013-06-24 02:30:00,66.9,60.9,30.04,NNE,15,0.0,1.0,81,0.00,,,-99.99,Wlink +4.0,2013-06-24 07:30:00,
2013-06-24 02:50:00,66.3,60.6,30.03,NNE,15,0.0,1.0,82,0.00,,,-99.99,Wlink +4.0,2013-06-24 07:50:00,
2013-06-24 03:00:00,66.0,60.4,30.04,NNE,15,0.0,1.0,82,0.00,,,-99.99,Wlink +4.0,2013-06-24 08:00:00,
2013-06-24 03:10:00,66.0,60.7,30.03,NNE,15,0.0,0.0,83,0.00,,,-99.99,Wlink +4.0,2013-06-24 08:10:00,
2013-06-24 03:20:00,66.0,60.7,30.03,NNE,15,0.0,0.0,83,0.00,,,-99.99,Wlink +4.0,2013-06-24 08:20:00,
2013-06-24 03:30:00,65.6,60.3,30.03,NNE,15,0.0,0.0,83,0.00,,,-99.99,Wlink +4.0,2013-06-24 08:30:00,
2013-06-24 03:50:00,65.4,60.1,30.03,NNE,15,0.0,0.0,83,0.00,,,-99.99,Wlink +4.0,2013-06-24 08:50:00,
2013-06-24 04:10:00,65.2,60.3,30.03,NNE,15,0.0,0.0,84,0.00,,,-99.99,Wlink +4.0,2013-06-24 09:10:00,
2013-06-24 04:31:00,64.9,60.0,30.03,NNE,16,0.0,0.0,84,0.00,,,-99.99,Wlink +4.0,2013-06-24 09:31:00,
2013-06-24 04:40:00,64.7,59.8,30.03,NNE,15,0.0,0.0,84,0.00,,,-99.99,Wlink +4.0,2013-06-24 09:40:00,
2013-06-24 05:00:00,64.2,59.3,30.02,West,281,0.0,0.0,84,0.00,,,-99.99,Wlink +4.0,2013-06-24 10:00:00,
2013-06-24 05:20:00,63.9,59.0,30.03,West,281,0.0,0.0,84,0.00,,,-99.99,Wlink +4.0,2013-06-24 10:20:00,
2013-06-24 05:30:00,64.2,59.6,30.03,West,281,0.0,0.0,85,0.00,,,-99.99,Wlink +4.0,2013-06-24 10:30:00,
2013-06-24 05:40:00,64.4,60.1,30.03,West,281,0.0,0.0,86,0.00,,,-99.99,Wlink +4.0,2013-06-24 10:40:00,
2013-06-24 05:50:00,64.4,59.8,30.04,West,281,0.0,0.0,85,0.00,,,-99.99,Wlink +4.0,2013-06-24 10:50:00,
2013-06-24 06:00:00,64.5,60.2,30.04,West,281,0.0,0.0,86,0.00,,,-99.99,Wlink +4.0,2013-06-24 11:00:00,
2013-06-24 06:10:00,65.0,60.7,30.05,West,281,0.0,3.0,86,0.00,,,-99.99,Wlink +4.0,2013-06-24 11:10:00,
2013-06-24 06:20:00,65.2,60.9,30.05,West,278,0.0,3.0,86,0.00,,,-99.99,Wlink +4.0,2013-06-24 11:20:00,
2013-06-24 06:30:00,65.4,61.1,30.05,West,278,0.0,3.0,86,0.00,,,-99.99,Wlink +4.0,2013-06-24 11:30:00,
2013-06-24 06:40:00,65.5,61.2,30.05,West,278,0.0,3.0,86,0.00,,,-99.99,Wlink +4.0,2013-06-24 11:40:00,
2013-06-24 06:50:00,65.8,61.5,30.05,West,278,0.0,3.0,86,0.00,,,-99.99,Wlink +4.0,2013-06-24 11:50:00,
2013-06-24 07:00:00,66.1,61.8,30.05,West,261,0.0,3.0,86,0.00,,,-99.99,Wlink +4.0,2013-06-24 12:00:00,
2013-06-24 07:10:00,66.5,62.2,30.05,SW,218,0.0,4.0,86,0.00,,,-99.99,Wlink +4.0,2013-06-24 12:10:00,
2013-06-24 07:20:00,66.8,62.5,30.05,SSW,195,0.0,4.0,86,0.00,,,-99.99,Wlink +4.0,2013-06-24 12:20:00,
2013-06-24 07:30:00,67.3,63.0,30.05,South,183,0.0,4.0,86,0.00,,,-99.99,Wlink +4.0,2013-06-24 12:30:00,
2013-06-24 07:40:00,67.8,63.5,30.04,South,190,0.0,4.0,86,0.00,,,-99.99,Wlink +4.0,2013-06-24 12:40:00,
2013-06-24 07:50:00,68.6,64.3,30.04,SSE,155,0.0,4.0,86,0.00,,,-99.99,Wlink +4.0,2013-06-24 12:50:00,
2013-06-24 08:00:00,69.1,64.7,30.03,North,8,1.0,5.0,86,0.00,,,-99.99,Wlink +4.0,2013-06-24 13:00:00,
2013-06-24 08:10:00,69.7,65.0,30.03,North,9,1.0,5.0,85,0.00,,,-99.99,Wlink +4.0,2013-06-24 13:10:00,
2013-06-24 08:20:00,70.8,65.4,30.02,NNE,16,1.0,5.0,83,0.00,,,-99.99,Wlink +4.0,2013-06-24 13:20:00,
2013-06-24 08:30:00,71.1,65.0,30.01,North,7,0.0,5.0,81,0.00,,,-99.99,Wlink +4.0,2013-06-24 13:30:00,
2013-06-24 08:40:00,71.9,65.0,30.02,North,11,2.0,5.0,79,0.00,,,-99.99,Wlink +4.0,2013-06-24 13:40:00,
2013-06-24 08:50:00,73.5,65.9,30.02,NNE,12,0.0,5.0,77,0.00,,,-99.99,Wlink +4.0,2013-06-24 13:50:00,
2013-06-24 09:00:00,75.2,65.6,30.03,NNE,15,0.0,4.0,72,0.00,,,-99.99,Wlink +4.0,2013-06-24 14:00:00,
2013-06-24 09:10:00,76.1,65.6,30.03,NNE,29,0.0,4.0,70,0.00,,,-99.99,Wlink +4.0,2013-06-24 14:10:00,
2013-06-24 09:20:00,76.5,65.2,30.04,NNE,33,0.0,4.0,68,0.00,,,-99.99,Wlink +4.0,2013-06-24 14:20:00,
2013-06-24 09:30:00,77.0,65.2,30.05,NNE,23,2.0,4.0,67,0.00,,,-99.99,Wlink +4.0,2013-06-24 14:30:00,
2013-06-24 09:40:00,77.5,63.9,30.05,NNE,22,0.0,4.0,63,0.00,,,-99.99,Wlink +4.0,2013-06-24 14:40:00,
2013-06-24 09:50:00,77.9,63.8,30.05,NNE,26,0.0,7.0,62,0.00,,,-99.99,Wlink +4.0,2013-06-24 14:50:00,
2013-06-24 10:00:00,78.8,64.2,30.05,NE,34,0.0,7.0,61,0.00,,,-99.99,Wlink +4.0,2013-06-24 15:00:00,
2013-06-24 10:10:00,79.1,64.5,30.05,NNE,26,0.0,7.0,61,0.00,,,-99.99,Wlink +4.0,2013-06-24 15:10:00,
2013-06-24 10:20:00,79.5,64.4,30.05,NNE,30,0.0,7.0,60,0.00,,,-99.99,Wlink +4.0,2013-06-24 15:20:00,
2013-06-24 10:30:00,79.5,64.4,30.04,NNE,23,2.0,7.0,60,0.00,,,-99.99,Wlink +4.0,2013-06-24 15:30:00,
2013-06-24 10:40:00,79.7,64.6,30.04,NNE,29,1.0,7.0,60,0.00,,,-99.99,Wlink +4.0,2013-06-24 15:40:00,
2013-06-24 10:50:00,79.5,63.4,30.04,NNE,19,4.0,6.0,58,0.00,,,-99.99,Wlink +4.0,2013-06-24 15:50:00,
2013-06-24 11:00:00,79.1,64.0,30.04,NNE,26,1.0,6.0,60,0.00,,,-99.99,Wlink +4.0,2013-06-24 16:00:00,
2013-06-24 11:10:00,79.1,64.0,30.04,NNE,24,0.0,6.0,60,0.00,,,-99.99,Wlink +4.0,2013-06-24 16:10:00,
2013-06-24 11:20:00,79.5,64.4,30.03,NNE,28,0.0,6.0,60,0.00,,,-99.99,Wlink +4.0,2013-06-24 16:20:00,
2013-06-24 11:30:00,80.2,64.6,30.03,NNE,14,0.0,6.0,59,0.00,,,-99.99,Wlink +4.0,2013-06-24 16:30:00,
2013-06-24 11:40:00,80.6,65.0,30.03,NNE,26,0.0,7.0,59,0.00,,,-99.99,Wlink +4.0,2013-06-24 16:40:00,
2013-06-24 11:50:00,80.9,65.7,30.03,NE,39,0.0,7.0,60,0.00,,,-99.99,Wlink +4.0,2013-06-24 16:50:00,
2013-06-24 12:01:00,81.1,64.9,30.03,NNE,31,2.0,7.0,58,0.00,,,-99.99,Wlink +4.0,2013-06-24 17:01:00,
2013-06-24 12:10:00,80.9,65.2,30.03,NNE,30,2.0,7.0,59,0.00,,,-99.99,Wlink +4.0,2013-06-24 17:10:00,
2013-06-24 12:30:00,80.9,64.8,30.03,NNE,21,1.0,7.0,58,0.00,,,-99.99,Wlink +4.0,2013-06-24 17:30:00,
2013-06-24 12:40:00,80.7,65.1,30.02,NNE,23,3.0,7.0,59,0.00,,,-99.99,Wlink +4.0,2013-06-24 17:40:00,
2013-06-24 12:50:00,80.7,65.5,30.03,NNE,28,4.0,9.0,60,0.00,,,-99.99,Wlink +4.0,2013-06-24 17:50:00,
2013-06-24 13:00:00,80.5,65.4,30.02,NNE,17,1.0,9.0,60,0.00,,,-99.99,Wlink +4.0,2013-06-24 18:00:00,
2013-06-24 13:10:00,79.7,65.5,30.02,NNE,12,0.0,9.0,62,0.00,,,-99.99,Wlink +4.0,2013-06-24 18:10:00,
2013-06-24 13:20:00,79.6,65.4,30.02,North,10,3.0,9.0,62,0.00,,,-99.99,Wlink +4.0,2013-06-24 18:20:00,
2013-06-24 13:30:00,79.4,65.7,30.01,North,7,1.0,9.0,63,0.00,,,-99.99,Wlink +4.0,2013-06-24 18:30:00,
2013-06-24 13:40:00,79.2,66.4,30.01,North,11,3.0,9.0,65,0.00,,,-99.99,Wlink +4.0,2013-06-24 18:40:00,
2013-06-24 13:50:00,78.4,66.1,30.01,North,7,0.0,9.0,66,0.00,,,-99.99,Wlink +4.0,2013-06-24 18:50:00,
2013-06-24 14:00:00,77.4,66.0,30.01,North,11,5.0,13.0,68,0.00,,,-99.99,Wlink +4.0,2013-06-24 19:00:00,
2013-06-24 14:10:00,76.8,66.3,30.00,North,9,3.0,13.0,70,0.00,,,-99.99,Wlink +4.0,2013-06-24 19:10:00,
2013-06-24 14:20:00,76.3,67.0,30.00,North,9,3.0,13.0,73,0.00,,,-99.99,Wlink +4.0,2013-06-24 19:20:00,
2013-06-24 14:30:00,74.9,66.4,30.00,North,9,1.0,13.0,75,0.01,,,-99.99,Wlink +4.0,2013-06-24 19:30:00,
2013-06-24 14:40:00,74.4,67.1,29.98,North,8,2.0,13.0,78,0.01,,,-99.99,Wlink +4.0,2013-06-24 19:40:00,
2013-06-24 14:50:00,74.1,66.8,29.97,North,11,1.0,13.0,78,0.01,,,-99.99,Wlink +4.0,2013-06-24 19:50:00,
2013-06-24 15:00:00,74.1,66.8,29.96,North,10,0.0,12.0,78,0.01,,,-99.99,Wlink +4.0,2013-06-24 20:00:00,
2013-06-24 15:10:00,74.3,66.6,29.96,NNE,16,1.0,9.0,77,0.01,,,-99.99,Wlink +4.0,2013-06-24 20:10:00,
2013-06-24 15:20:00,74.8,66.7,29.96,NNE,19,1.0,9.0,76,0.01,,,-99.99,Wlink +4.0,2013-06-24 20:20:00,
2013-06-24 15:30:00,74.9,66.4,29.97,NNE,19,0.0,7.0,75,0.00,,,-99.99,Wlink +4.0,2013-06-24 20:30:00,
2013-06-24 15:41:00,75.1,66.6,29.98,NNE,18,0.0,5.0,75,0.00,,,-99.99,Wlink +4.0,2013-06-24 20:41:00,
2013-06-24 15:50:00,75.0,66.2,29.98,NNE,19,0.0,5.0,74,0.00,,,-99.99,Wlink +4.0,2013-06-24 20:50:00,
2013-06-24 16:00:00,74.9,66.1,29.98,NNE,13,0.0,4.0,74,0.00,,,-99.99,Wlink +4.0,2013-06-24 21:00:00,
2013-06-24 16:10:00,75.3,66.4,29.98,North,10,0.0,7.0,74,0.00,,,-99.99,Wlink +4.0,2013-06-24 21:10:00,
2013-06-24 16:20:00,75.5,66.6,29.99,NNE,12,0.0,7.0,74,0.00,,,-99.99,Wlink +4.0,2013-06-24 21:20:00,
2013-06-24 16:30:00,75.3,66.1,29.99,North,11,2.0,7.0,73,0.00,,,-99.99,Wlink +4.0,2013-06-24 21:30:00,
2013-06-24 16:40:00,75.0,66.2,29.99,North,9,0.0,7.0,74,0.00,,,-99.99,Wlink +4.0,2013-06-24 21:40:00,
2013-06-24 16:50:00,75.0,65.8,29.99,North,10,0.0,7.0,73,0.00,,,-99.99,Wlink +4.0,2013-06-24 21:50:00,
2013-06-24 17:00:00,75.0,65.0,29.99,North,10,0.0,7.0,71,0.00,,,-99.99,Wlink +4.0,2013-06-24 22:00:00,
2013-06-24 17:10:00,75.0,64.1,29.98,North,8,0.0,5.0,69,0.00,,,-99.99,Wlink +4.0,2013-06-24 22:10:00,
2013-06-24 17:20:00,75.2,63.5,29.98,North,10,0.0,5.0,67,0.00,,,-99.99,Wlink +4.0,2013-06-24 22:20:00,
2013-06-24 17:31:00,75.5,63.4,29.97,North,11,0.0,5.0,66,0.00,,,-99.99,Wlink +4.0,2013-06-24 22:31:00,
2013-06-24 17:51:00,75.7,62.7,29.98,North,10,0.0,5.0,64,0.00,,,-99.99,Wlink +4.0,2013-06-24 22:51:00,
2013-06-24 18:00:00,75.9,62.9,29.97,North,8,0.0,5.0,64,0.00,,,-99.99,Wlink +4.0,2013-06-24 23:00:00,
2013-06-24 18:10:00,75.7,62.7,29.98,North,8,0.0,4.0,64,0.00,,,-99.99,Wlink +4.0,2013-06-24 23:10:00,
2013-06-24 18:20:00,75.7,62.7,29.98,North,8,0.0,4.0,64,0.00,,,-99.99,Wlink +4.0,2013-06-24 23:20:00,
2013-06-24 18:31:00,75.4,62.4,29.98,North,10,1.0,4.0,64,0.00,,,-99.99,Wlink +4.0,2013-06-24 23:31:00,
2013-06-24 18:40:00,75.2,62.2,29.98,North,11,0.0,5.0,64,0.00,,,-99.99,Wlink +4.0,2013-06-24 23:40:00,
2013-06-24 18:50:00,74.8,62.3,29.98,NNE,12,3.0,5.0,65,0.00,,,-99.99,Wlink +4.0,2013-06-24 23:50:00,
2013-06-24 19:00:00,74.7,62.2,29.98,North,10,0.0,5.0,65,0.00,,,-99.99,Wlink +4.0,2013-06-25 00:00:00,
2013-06-24 19:20:00,74.6,62.1,29.98,North,11,2.0,7.0,65,0.00,,,-99.99,Wlink +4.0,2013-06-25 00:20:00,
2013-06-24 19:30:00,74.3,62.2,29.97,North,10,1.0,7.0,66,0.00,,,-99.99,Wlink +4.0,2013-06-25 00:30:00,
2013-06-24 19:40:00,74.1,62.0,29.97,North,11,0.0,7.0,66,0.00,,,-99.99,Wlink +4.0,2013-06-25 00:40:00,
2013-06-24 19:50:00,74.1,62.5,29.97,North,10,1.0,7.0,67,0.00,,,-99.99,Wlink +4.0,2013-06-25 00:50:00,
2013-06-24 20:00:00,74.0,62.4,29.96,NNE,13,0.0,7.0,67,0.00,,,-99.99,Wlink +4.0,2013-06-25 01:00:00,
2013-06-24 20:10:00,73.8,62.2,29.96,North,10,0.0,7.0,67,0.00,,,-99.99,Wlink +4.0,2013-06-25 01:10:00,
2013-06-24 20:30:00,73.1,61.9,29.96,North,10,0.0,5.0,68,0.00,,,-99.99,Wlink +4.0,2013-06-25 01:30:00,
2013-06-24 20:40:00,72.8,62.0,29.96,North,9,0.0,5.0,69,0.00,,,-99.99,Wlink +4.0,2013-06-25 01:40:00,
2013-06-24 20:50:00,72.6,62.3,29.96,North,6,0.0,5.0,70,0.00,,,-99.99,Wlink +4.0,2013-06-25 01:50:00,
2013-06-24 21:00:00,72.4,62.1,29.95,North,9,0.0,5.0,70,0.00,,,-99.99,Wlink +4.0,2013-06-25 02:00:00,
2013-06-24 21:10:00,72.3,62.0,29.96,North,9,0.0,5.0,70,0.00,,,-99.99,Wlink +4.0,2013-06-25 02:10:00,
2013-06-24 21:20:00,71.9,61.6,29.97,North,8,3.0,5.0,70,0.00,,,-99.99,Wlink +4.0,2013-06-25 02:20:00,
2013-06-24 21:30:00,71.6,61.3,29.96,North,8,2.0,5.0,70,0.00,,,-99.99,Wlink +4.0,2013-06-25 02:30:00,
2013-06-24 21:40:00,71.4,61.5,29.97,North,7,1.0,5.0,71,0.00,,,-99.99,Wlink +4.0,2013-06-25 02:40:00,
2013-06-24 21:50:00,71.1,61.2,29.97,North,10,1.0,5.0,71,0.00,,,-99.99,Wlink +4.0,2013-06-25 02:50:00,
2013-06-24 22:00:00,70.7,60.8,29.97,North,8,0.0,5.0,71,0.00,,,-99.99,Wlink +4.0,2013-06-25 03:00:00,
2013-06-24 22:10:00,70.4,61.0,29.97,NNE,16,0.0,5.0,72,0.00,,,-99.99,Wlink +4.0,2013-06-25 03:10:00,
2013-06-24 22:20:00,69.9,60.5,29.97,NNE,13,1.0,5.0,72,0.00,,,-99.99,Wlink +4.0,2013-06-25 03:20:00,
2013-06-24 22:30:00,69.4,60.4,29.98,NNE,17,0.0,5.0,73,0.00,,,-99.99,Wlink +4.0,2013-06-25 03:30:00,
2013-06-24 22:40:00,69.1,60.1,29.98,NNE,12,0.0,5.0,73,0.00,,,-99.99,Wlink +4.0,2013-06-25 03:40:00,
2013-06-24 23:00:00,68.6,59.6,29.99,NNE,12,0.0,3.0,73,0.00,,,-99.99,Wlink +4.0,2013-06-25 04:00:00,
2013-06-24 23:10:00,68.6,60.0,29.99,NNE,12,0.0,3.0,74,0.00,,,-99.99,Wlink +4.0,2013-06-25 04:10:00,
2013-06-24 23:20:00,68.8,60.6,29.99,NNE,16,1.0,3.0,75,0.00,,,-99.99,Wlink +4.0,2013-06-25 04:20:00,
2013-06-24 23:30:00,68.6,60.4,29.99,NNE,14,0.0,3.0,75,0.00,,,-99.99,Wlink +4.0,2013-06-25 04:30:00,
2013-06-24 23:40:00,68.6,60.4,30.00,NNE,17,0.0,3.0,75,0.00,,,-99.99,Wlink +4.0,2013-06-25 04:40:00,
2013-06-24 23:50:00,68.3,60.5,29.99,NNE,15,0.0,3.0,76,0.00,,,-99.99,Wlink +4.0,2013-06-25 04:50:00,